Regional Weather Roundup
Issued by NWS Newport/Morehead, NC

Current Version | Previous Version | Graphics & Text | Print | Product List | Glossary Off
Versions: 1 2 3 4 5 6 7 8 9 10 11 12 13 14 15 16 17 18 19 20 21 22 23 24 25 26 27 28 29 30 31 32 33 34 35 36 37 38 39 40 41 42 43 44 45 46 47 48 49 50

000
ASUS42 KMHX 041812
RWRMHX
WEATHER ROUNDUP FOR EASTERN NORTH CAROLINA
NATIONAL WEATHER SERVICE NEWPORT/MOREHEAD CITY NC
200 PM EDT MON MAY 04 2015

NOTE: "FAIR" INDICATES FEW OR NO CLOUDS BELOW 12,000 FEET
WITH NO SIGNIFICANT WEATHER AND/OR OBSTRUCTIONS TO VISIBILITY

NCZ015>017-031-032-045>047-102-103-041900-
NORTH COAST

CITY           SKY/WX    TMP DP  RH WIND       PRES   REMARKS
EDENTON        MOSUNNY   80  47  31 W6        30.31F
ELIZABETH CITY SUNNY     80  45  28 S12       30.31F
KITTY HAWK     CLEAR     78  51  38 S5        30.31S
MANTEO         CLOUDY    75  53  45 SW9       30.33S

$$

NCZ045>047-081-094-103-104-041900-
CENTRAL COAST

CITY           SKY/WX    TMP DP  RH WIND       PRES   REMARKS
FRISCO         SUNNY     70  56  61 SW6       30.35S
SWANQUARTER      N/A     79 N/A N/A S5        30.30S

$$

NCZ095-097-098-100-101-041900-
SOUTHERN COAST

CITY           SKY/WX    TMP DP  RH WIND       PRES   REMARKS
BEAUFORT       SUNNY     75  52  44 S10       30.35S
CEDAR ISLAND     N/A     79 N/A N/A S9G18     30.39S
JACKSONVILLE   SUNNY     79  45  29 SE9       30.33S
PINEY ISLAND   MOCLDY   N/A N/A N/A S7G18     30.33S
WILMINGTON     SUNNY     79  54  41 SE12      30.33S


$$

NCZ011>013-027>030-043-044-078>080-089-090>093-098-041900-
COASTAL PLAIN

CITY           SKY/WX    TMP DP  RH WIND       PRES   REMARKS
AHOSKIE        SUNNY     80  50  35 S8        30.30S
CLINTON        PTSUNNY   78  51  37 CALM      30.32F
ELIZABETHTOWN  MOSUNNY   78  48  33 S5        30.32F
GOLDSBORO      SUNNY     81  48  31 VRB7      30.29F
GREENVILLE     SUNNY     81  46  30 SW9       30.32S
HAVELOCK       SUNNY     80  44  27 S8        30.34S
KENANSVILLE    MOSUNNY   79  44  28 SW7       30.33F
KINSTON        MOSUNNY   81  43  26 S8        30.32F
NEW BERN       PTSUNNY   79  46  31 SE9       30.33F
RICHLANDS      CLOUDY    79  46  31 SE5       30.33S
ROCKY MOUNT    SUNNY     81  51  35 SW12      30.30F
WASHINGTON     MOSUNNY   78  47  33 S9        30.32S
WHITEVILLE     PTSUNNY   79  50  36 CALM      30.32S

$$

AMZ130-135-150-152-154-156-158-170-250-252-270-ANZ085-086-088-633-658-670-041900-
MARINE OBSERVATIONS

STATION/POSITION TIME  TEMP    WIND        PRES    WAVE   SWELL
                       AIR SEA DIR/SP/G            HT/PER HT/PER
                 (UTC) (F)     (DEG/KT/KT) (MB)    (FT/S) (FT/S)
CHESAPEAKE LIGHT 1800   68     180/  7/  8 1026.6
64 E VA BEACH    1750   61 62  200/  8/ 10 1026.5    3/10   3/10
DUCK             1718          260/  8/  9   N/A
2 E DUCK         1711      60                N/A     3/11   2/11
OREGON INLET     1700   67 64  180/  8/ 10 1027.2
13E OREGON INLT  1800      57                N/A     3/10   2/11
HATTERAS CG      1700   72 63  250/  4/  7 1027.3
DIAMOND BUOY     1750   71 79  250/  4/  4 1027.9    4/10   3/10
CAPE LOOKOUT     1800   71     160/  7/  8 1027.6
BEAUFORT LAB     1700   69 65  180/  8/  9 1026.9
27 SE WRIGHTSVLE 1700   72 72  220/  2/  2   N/A
5 SE WRIGHTSVLE  1708   70 69  150/  6/  8 1027.8
225 S CAPE HAT   1750   68 70   90/ 12/ 16 1027.9    5/10   3/10
41 SE CHARLESTON 1750   73 74   70/ 12/ 14 1026.8    3/11   3/11

$$


USA.gov is the U.S. government's official web portal to all federal, state and local government web resources and services.